sat.trackr.live / text

‹ back to catalog

STARLINK-34636

NORAD 64915 · 2025-157M

PAYLOAD ACTIVE UNKNOWN

§ Identity

Operator
Country
US
Launch date
2025-07-26
Launch site
AFETR
Launch vehicle
Mass (kg)
RCS (m²)

Purposes: comms

External: N2YO · Heavens-Above · Gunter

§ Orbital elements

Epoch: 2026-05-24T20:22:39.838080Z

Period
94.11 min
Inclination
53.1606°
Eccentricity
0.0000879
Mean motion
15.30203136 rev/d
Perigee alt
474.6 km
Apogee alt
475.8 km
Semi-major
6,853.3 km
B*
6.1268e-4
RAAN
351.9463°
Arg perigee
67.2084°
Mean anomaly
292.9010°
Rev number
4,778

§ Raw data

STARLINK-346361 64915U 25157M   26144.84907220  .00017832  00000+0  61268-3 0  99902 64915  53.1606 351.9463 0000879  67.2084 292.9010 15.30203136 47783

JSON: /api/v1/satellites/64915 · /tle

For live sub-satellite position, see the globe view (requires WebGL).

§ Visibility from observer

Set your observer location to see the next 7 days of passes ≥ 10°. The values pass through the URL so the page stays shareable.

No JS? Fill the form by hand. The geolocation button needs JavaScript.